SCP
0 0 0 0 0 0 0 0 0 0 0 0 0 0 0 0 0 0 0 0 0 0 0 0 0 0 0 0 0 0 0 0 0 0 0 0 0 0
0 0 0 0 0 0 0 0 0 0 0 0 0 0 0 0 0 0 0 0 0 0 0 0 0 0 0 0 0 0 0 0 0 0 0 0 0 0
0 0 0 0 0 0 0 0 0 0 0 0 0 0 0 0 0 0 0 0 0 0 0 0 0 0 0 0 0 0 0 0 0 0 0 0 0 0
0 0 0 0 0 0 0 0 0 0 0 0 0 0 0 0 0 0 0 0 0 0 0 0 0 0 0 0 0 0 0 0 0 0 0 0 0 0
0 0 0 0 0 0 0 0 0 0 0 0 0 0 0 0 0 0 0 0 0 0 0 0 0 0 0 0 0 0 0 0 0 0 0 0 0 0
0 0 0 0 0 0 0 0 0 0 0 0 0 0 0 0 0 0 0 0 0 0 0 0 0 0 0 0 0 0 0 0 0 0 0 0 0 0
0 0 0 0 0 0 0 0 0 0 0 0 0 0 0 0 0 0 0 0 0 0 0 0 0 0 0 0 0 0 0 0 0 0 0 0 0 0
0 0 0 0 0 0 0 0 0 0 0 0 0 0 0 0 0 0 0 0 0 0 0 0 0 0 0 0 0 0 0 0 0 0 0 0 0 0
0 0 0 0 0 0 0 0 0 0 0 0 0 0 0 0 0 0 0 0 0 0 0 0 0 0 0 0 0 0 0 0 0 0 0 0 0 0
0 0 0 0 0 0 0 0 0 0 0 0 0 0 0 0 0 0 0 0 0 0 0 0 0 0 0 0 0 0 0 0 0 0 0 0 0 0
0 0 0 0 0 0 0 0 0 0 0 0 0 0 0 0 0 0 0 0 0 0 0 0 0 0 0 0 0 0 0 0 0 0 0 0 0 0
0 0 0 0 0 0 0 0 0 0 0 0 0 0 0 0 0 0 0 0 0 0 0 0 0 0 0 0 0 0 0 0 0 0 0 0 0 0
0 0 0 0 0 0 0 0 0 0 0 0 0 0 0 0 0 0 0 0 0 0 0 0 0 0 0 0 0 0 0 0 0 0 0 0 0 0
0 0 0 0 0 0 0 0 0 0 0 0 0 0 0 0 0 0 0 0 0 0 0 0 0 0 0 0 0 0 0 0 0 0 0 0 0 0
0 0 0 0 0 0 0 0 0 0 0 0 0 0 0 0 0 0 0 0 0 0 0 0 0 0 0 0 0 0 0 0 0 0 0 0 0 0
0 0 0 0 0 0 0 0 0 0 0 0 0 0 0 0 0 0 0 0 0 0 0 0 0 0 0 0 0 0 0 0 0 0 0 0 0 0
0 0 0 0 0 0 0 0 0 0 0 0 0 0 0 0 0 0 0 0 0 0 0 0 0 0 0 0 0 0 0 0 0 0 0 0 0 0
0 0 0 0 0 0 0 0 0 0 0 0 0 0 0 0 0 0 0 0 0 0 0 0 0 0 0 0 0 0 0 0 0 0 0 0 0 0
0 0 0 0 0 0 0 0 0 0 0 0 0 0 0 0 0 0 0 0 0 0 0 0 0 0 0 0 0 0 0 0 0 0 0 0 0 0
0 0 0 0 0 0 0 0 0 0 0 0 0 0 0 0 0 0 0 0 0 0 0 0 0 0 0 0 0 0 0 0 0 0 0 0 0 0
0 0 0 0 0 0 0 0 0 0 0 0 0 0 0 0 0 0 0 0 0 0 0 0 0 0 0 0 0 0 0 0 0 0 0 0 0 0
0 0 0 0 0 0 0 0 0 0 0 0 0 0 0 0 0 0 0 0 0 0 0 0 0 0 0 0 0 0 0 0 0 0 0 0 0 0
0 0 0 0 0 0 0 0 0 0 0 0 0 0 0 0 0 0 0 0 0 0 0 0 0 0 0 0 0 0 0 0 0 0 0 0 0 0
Wind_Speed
6 7 6 5 5 6 6 6 6 6 6 5 4 4 4 4 3 5 6 7 9 9 9 9 10 10 10 10 10 10 9 8 9 9 9 9 9 9
5 5 6 5 5 5 6 6 6 7 6 4 4 3 3 4 4 6 6 7 10 10 10 10 10 9 10 10 10 10 9 9 9 9 9 9 9 9
6 6 7 6 5 5 5 6 6 6 7 6 4 3 4 6 4 5 6 6 6 11 11 10 10 10 10 10 10 10 10 10 10 10 10 10 9 9
7 7 7 6 7 6 5 6 6 6 7 7 5 5 5 5 5 6 6 5 5 8 10 11 11 11 10 10 10 10 10 10 11 11 10 10 10 10
7 7 7 7 7 5 6 6 5 6 6 6 6 4 4 4 5 6 7 5 6 6 10 12 12 12 12 11 11 11 11 11 11 11 10 10 10 10
7 6 7 6 6 6 6 6 6 6 6 6 6 5 5 4 5 5 5 5 5 5 5 7 10 13 13 13 13 12 12 12 12 11 11 11 11 10
7 7 7 5 5 5 5 5 5 5 5 5 6 5 5 4 5 5 5 5 5 5 5 5 6 7 9 12 14 13 13 12 12 12 12 12 11 11
7 7 6 6 6 7 6 6 6 6 6 6 6 5 5 5 4 5 5 5 5 4 5 6 6 7 7 7 9 11 12 12 12 12 12 12 12 12
6 5 6 4 6 6 7 9 9 9 8 8 8 7 6 5 6 7 6 7 7 5 5 7 6 7 7 6 10 12 13 13 13 13 13 13 12 12
6 7 6 5 5 5 6 7 7 8 8 9 8 8 7 6 6 7 7 7 8 6 6 7 6 6 6 5 9 12 13 13 13 13 13 13 12 12
6 6 6 6 3 4 6 7 7 7 8 9 8 8 7 7 6 6 6 7 7 5 5 6 6 6 6 7 7 12 13 13 13 13 13 12 12 11
5 5 5 5 3 5 7 7 8 8 7 7 8 9 10 9 10 9 8 7 6 5 4 5 6 5 5 5 5 5 7 10 12 13 13 12 11 9
4 4 3 6 5 6 7 8 8 8 8 8 8 8 7 7 8 8 8 7 7 7 4 5 5 6 6 5 5 5 5 5 6 8 11 13 13 11
5 4 2 5 6 7 7 7 7 7 7 7 7 7 6 6 6 6 7 8 8 8 7 6 6 6 7 7 6 5 5 5 6 6 5 8 11 13
4 3 2 4 6 7 9 8 8 7 7 7 8 7 6 6 6 6 7 8 9 9 8 8 8 7 7 8 7 6 5 5 5 5 5 5 6 6
5 4 5 7 8 7 6 7 7 6 7 7 7 7 6 6 6 6 6 6 6 6 7 8 8 8 8 8 7 7 6 4 4 4 4 5 6 7
4 5 5 5 6 6 6 6 6 6 7 7 7 6 6 6 6 5 5 6 7 6 5 5 7 7 9 8 7 7 6 5 5 4 4 6 6 6
5 6 6 6 6 6 6 6 6 6 6 6 6 6 6 6 6 6 6 6 7 6 6 5 5 5 6 7 7 8 6 5 5 5 5 6 6 5
6 6 6 6 6 6 6 6 6 5 5 5 6 6 6 6 6 6 6 6 6 6 6 5 5 5 7 7 5 7 6 5 5 5 5 6 6 5
6 6 6 6 6 6 6 6 6 5 5 5 6 6 6 6 6 6 6 7 6 6 6 5 5 5 6 6 5 4 7 6 5 5 5 5 5 4
5 6 6 6 5 5 5 5 5 5 5 5 6 6 6 6 6 7 6 6 7 7 7 6 4 5 5 4 5 5 4 5 5 5 5 5 5 5
5 6 5 5 5 5 5 5 5 5 6 6 6 6 6 6 7 7 6 6 6 6 6 5 4 5 5 6 6 5 4 3 4 5 6 6 6 5
5 5 5 5 5 5 5 5 6 5 5 6 6 6 6 6 6 6 6 6 6 6 5 5 4 4 5 5 5 4 5 5 4 3 3 4 7 7
Wind_Direction
235 232 243 243 244 247 246 246 253 260 253 231 237 224 235 234 206 224 231 195 201 207 212 212 212 214 215 217 219 221 222 223 226 229 230 232 235 238
237 238 241 242 239 242 245 245 245 256 266 261 255 247 238 247 209 236 238 196 200 206 212 214 213 213 215 216 218 218 220 222 225 228 229 229 232 236
237 234 238 246 243 240 240 243 243 245 254 259 251 249 236 250 239 241 240 233 213 196 204 210 212 213 215 217 218 219 218 220 224 227 230 229 229 231
238 237 239 236 237 246 244 243 245 243 248 256 255 251 243 241 244 247 247 238 240 186 194 206 210 210 213 217 217 219 219 220 222 225 228 231 232 232
242 241 244 244 242 242 244 247 248 244 244 251 250 253 252 246 245 242 244 245 245 198 193 203 208 211 214 216 218 220 220 221 224 224 225 229 232 234
246 245 244 244 248 249 243 244 248 249 243 249 250 246 244 240 244 246 246 237 244 239 220 214 206 207 212 214 216 219 220 222 224 226 226 228 230 232
241 240 236 239 254 259 262 251 246 247 246 246 250 251 249 247 250 255 257 256 246 246 241 231 218 220 213 213 213 215 219 221 223 225 226 227 229 231
245 244 237 223 225 226 240 249 255 251 253 255 254 252 256 256 259 259 260 258 256 238 242 244 239 239 232 227 202 202 212 220 222 224 226 227 228 231
243 246 254 243 231 235 221 220 227 236 245 258 262 263 261 260 263 259 258 265 270 267 255 254 243 245 247 229 187 198 210 218 222 224 226 228 230 233
242 243 248 249 244 247 243 239 238 232 231 238 253 259 260 261 254 256 260 257 256 249 248 260 254 252 253 249 189 197 208 216 221 225 226 227 230 233
245 242 242 240 224 232 248 251 251 248 230 227 240 252 262 260 257 256 250 252 256 253 238 255 259 259 255 251 217 197 206 213 219 222 224 225 227 231
239 230 219 230 209 207 243 251 254 257 260 240 231 233 237 233 223 235 251 253 260 261 240 245 256 260 260 244 235 213 212 211 214 218 219 220 216 227
254 246 217 174 200 219 240 249 254 263 262 257 249 242 236 231 226 225 235 250 257 260 250 244 258 258 263 266 252 240 233 227 220 220 214 212 209 218
262 264 232 167 206 227 238 249 250 252 254 254 253 251 247 241 237 236 236 242 249 259 263 258 261 262 265 262 260 250 240 237 237 237 231 204 211 220
266 289 268 215 229 234 234 236 237 241 245 248 250 250 249 247 246 238 235 236 242 245 242 241 249 255 257 260 261 258 255 248 239 235 235 231 226 219
250 238 214 223 238 250 239 227 235 244 250 252 254 254 252 247 243 241 244 240 244 245 236 237 244 248 252 254 256 257 255 249 240 236 238 241 233 228
270 254 248 238 238 240 243 243 240 234 239 248 253 255 250 244 242 239 242 244 246 250 247 235 234 235 246 254 253 251 253 252 244 240 246 250 245 238
252 249 249 249 250 250 249 248 243 244 247 250 251 253 253 251 247 243 241 244 247 248 248 247 244 242 243 241 233 246 249 250 245 233 241 250 252 244
240 253 257 259 260 259 258 257 254 250 249 250 252 254 255 253 251 248 245 247 251 251 249 245 240 244 252 256 233 218 240 245 247 244 242 246 252 248
250 259 262 264 266 263 263 263 260 257 251 252 252 251 250 250 249 249 246 246 251 253 252 246 239 240 249 259 270 251 223 233 241 247 252 256 259 251
261 262 264 268 270 266 264 263 261 258 255 254 253 254 253 250 250 251 249 238 243 248 248 245 237 231 250 251 252 254 244 213 234 248 254 257 257 247
275 274 273 273 268 266 264 263 259 254 251 248 251 252 251 251 250 251 251 245 238 241 248 249 238 230 236 240 248 251 252 238 213 219 244 258 261 259
279 278 276 271 266 264 265 264 266 266 264 261 256 252 250 248 248 248 245 242 240 239 245 244 238 235 239 241 242 247 247 244 242 236 243 237 223 232